Ely, NV

10:25 AM PDT on May 28, 2017 (GMT -0700)
Ely

Weather History for KELY - February, 2013

Change the Weather History Date:

Wednesday, February 20, 2013

  Actual Average Record
Temperature  
Mean Temperature 26 °F 30 °F  
Max Temperature 33 °F 44 °F 66 °F (1977)
Min Temperature 18 °F 17 °F -13 °F (1990)
Degree Days  
Heating Degree Days 39 35  
Month to date heating degree days 774 740  
Since 1 July heating degree days 4889 5069  
Cooling Degree Days 0 0  
Month to date cooling degree days 0 0  
Year to date cooling degree days 0 0  
Moisture  
Dew Point 23 °F    
Average Humidity 76    
Maximum Humidity 92    
Minimum Humidity 59    
Precipitation  
Precipitation 0.01 in 0.02 in 0.50 in (1897)
Month to date precipitation 0.62 0.51  
Year to date precipitation 1.42 1.21  
Snow  
Snow 0.20 in 0.30 in 5.00 in (1897)
Month to date snowfall 9.3 5.7  
Since 1 July snowfall 54.7 32.7  
Snow Depth 2.00 in    
Sea Level Pressure  
Sea Level Pressure 29.64 in    
Wind  
Wind Speed 12 mph (North)    
Max Wind Speed 25 mph    
Max Gust Speed 32 mph    
Visibility 7 miles    
Events Snow    
T = Trace of Precipitation, MM = Missing Value Source: NWS Daily Summary

Daily Weather History Graph

Daily Weather History Graph

Search for Another Location

Airport or City:

Trip Planner

Search our weather history database for the weather conditions in past years. The results will help you decide how hot, cold, wet, or windy it might be!

Date:

Astronomy

Feb. 20, 2013 Rise Set
Actual Time 6:24 AM PST 5:22 PM PST
Civil Twilight 5:57 AM PST 5:49 PM PST
Nautical Twilight 5:25 AM PST 6:20 PM PST
Astronomical Twilight 4:54 AM PST 6:51 PM PST
Moon 12:48 PM PST (2/20) 2:46 AM PST (2/20)
Length of Visible Light 11h 52m
Length of Day
10h 58m
Waxing Gibbous, 77% of the Moon is Illuminated
Feb 20
Waxing Gibbous
Feb 25
Full
Mar 4
Last Quarter
Mar 11
New
Mar 19
First Quarter

Hourly Weather History & Observations

Time (PST) Temp. Windchill Dew Point Humidity Pressure Visibility Wind Dir Wind Speed Gust Speed Precip Events Conditions
12:53 AM 28.0 °F 24.2 °F 26.1 °F 92% 29.47 in 9.0 mi South 3.5 mph - 0.00 in   Overcast
1:53 AM 28.0 °F 20.0 °F 25.0 °F 88% 29.46 in 10.0 mi SSW 8.1 mph - N/A   Overcast
2:53 AM 28.9 °F 25.2 °F 26.1 °F 89% 29.46 in 7.0 mi NE 3.5 mph - 0.00 in Snow Light Snow
3:16 AM 28.4 °F - 26.6 °F 93% 29.51 in 2.0 mi Calm Calm - 0.00 in Snow Light Snow
3:42 AM 28.4 °F - 26.6 °F 93% 29.51 in 3.0 mi Calm Calm - 0.00 in Snow Light Snow
3:53 AM 28.0 °F - 26.1 °F 92% 29.49 in 5.0 mi Calm Calm - 0.00 in   Overcast
4:00 AM 28.4 °F - 26.6 °F 93% 29.52 in 7.0 mi Calm Calm - 0.00 in Snow Light Snow
4:26 AM 28.4 °F 24.6 °F 26.6 °F 93% 29.52 in 6.0 mi North 3.5 mph - 0.00 in   Overcast
4:41 AM 26.6 °F 18.2 °F 26.6 °F 100% 29.53 in 4.0 mi North 8.1 mph - 0.00 in Snow Light Snow
4:48 AM 26.6 °F 18.2 °F 26.6 °F 100% 29.53 in 3.0 mi North 8.1 mph - 0.00 in Snow Light Snow
4:53 AM 27.0 °F 18.0 °F 26.1 °F 96% 29.52 in 3.0 mi North 9.2 mph - 0.00 in Snow Light Snow
5:53 AM 26.1 °F 15.6 °F 24.1 °F 92% 29.54 in 9.0 mi North 11.5 mph - 0.00 in   Overcast
6:53 AM 26.1 °F 15.6 °F 24.1 °F 92% 29.57 in 10.0 mi North 11.5 mph - N/A   Overcast
7:27 AM 26.6 °F 15.7 °F 24.8 °F 93% 29.58 in 9.0 mi NNE 12.7 mph - N/A   Overcast
7:48 AM 26.6 °F 14.7 °F 24.8 °F 93% 29.59 in 10.0 mi North 15.0 mph - N/A   Overcast
7:53 AM 26.1 °F 13.6 °F 24.1 °F 92% 29.59 in 10.0 mi North 16.1 mph - N/A   Mostly Cloudy
8:53 AM 28.0 °F 16.1 °F 25.0 °F 88% 29.62 in 8.0 mi North 16.1 mph - 0.00 in   Overcast
9:27 AM 30.2 °F 18.9 °F 26.6 °F 86% 29.63 in 2.5 mi North 16.1 mph - 0.00 in Snow Light Snow
9:53 AM 30.0 °F 19.1 °F 26.1 °F 85% 29.63 in 2.5 mi North 15.0 mph - 0.00 in Snow Light Snow
10:08 AM 30.2 °F 18.5 °F 26.6 °F 86% 29.64 in 3.0 mi North 17.3 mph - 0.01 in Snow Light Snow
10:10 AM 30.2 °F 18.5 °F 26.6 °F 86% 29.64 in 2.5 mi North 17.3 mph - 0.01 in Snow Light Snow
10:21 AM 30.2 °F 18.5 °F 24.8 °F 80% 29.64 in 3.0 mi North 17.3 mph - 0.01 in Snow Light Snow
10:32 AM 30.2 °F 18.1 °F 24.8 °F 80% 29.65 in 2.5 mi North 18.4 mph - 0.01 in Snow Light Snow
10:48 AM 30.2 °F 17.8 °F 24.8 °F 80% 29.64 in 2.0 mi North 19.6 mph - 0.01 in Snow Light Snow
10:53 AM 30.0 °F 17.9 °F 25.0 °F 82% 29.65 in 2.5 mi North 18.4 mph - 0.01 in Snow Light Snow
11:15 AM 30.2 °F 18.5 °F 24.8 °F 80% 29.65 in 3.0 mi North 17.3 mph - 0.00 in Snow Light Snow
11:53 AM 32.0 °F 20.5 °F 24.1 °F 73% 29.64 in 10.0 mi North 18.4 mph - 0.00 in   Overcast
12:20 PM 30.2 °F 18.5 °F 24.8 °F 80% 29.65 in 10.0 mi North 17.3 mph - 0.00 in   Overcast
12:53 PM 30.9 °F 20.7 °F 23.0 °F 72% 29.66 in 10.0 mi North 13.8 mph 26.5 mph 0.00 in   Overcast
1:53 PM 30.9 °F 20.2 °F 24.1 °F 76% 29.67 in 10.0 mi North 15.0 mph - N/A   Overcast
2:17 PM 30.2 °F 19.8 °F 23.0 °F 75% 29.67 in 10.0 mi North 13.8 mph - N/A   Overcast
2:53 PM 30.2 °F 19.8 °F 24.8 °F 80% 29.67 in 10.0 mi North 13.8 mph - N/A   Overcast
3:53 PM 30.0 °F 20.0 °F 23.0 °F 75% 29.71 in 10.0 mi North 12.7 mph - N/A   Overcast
4:53 PM 28.4 °F 17.0 °F 24.8 °F 86% 29.71 in 9.0 mi North 15.0 mph - N/A   Overcast
5:18 PM 28.4 °F 19.7 °F 23.0 °F 80% 29.73 in 10.0 mi North 9.2 mph - N/A   Overcast
5:53 PM 27.0 °F 13.9 °F 19.9 °F 75% 29.78 in 10.0 mi NW 18.4 mph - N/A   Overcast
6:53 PM 25.0 °F 11.3 °F 15.1 °F 66% 29.82 in 10.0 mi NW 18.4 mph 25.3 mph N/A   Overcast
7:53 PM 23.0 °F 11.1 °F 12.2 °F 63% 29.80 in 10.0 mi NW 12.7 mph 20.7 mph N/A   Mostly Cloudy
8:53 PM 23.0 °F 12.4 °F 10.9 °F 60% 29.86 in 10.0 mi NW 10.4 mph - N/A   Overcast
9:53 PM 19.9 °F 10.1 °F 10.9 °F 68% 29.89 in 10.0 mi WNW 8.1 mph - N/A   Clear
10:53 PM 19.9 °F 7.9 °F 10.0 °F 65% 29.89 in 10.0 mi West 11.5 mph - N/A   Clear
11:53 PM 19.0 °F 13.9 °F 9.0 °F 65% 29.88 in 10.0 mi WNW 3.5 mph - N/A   Clear